Regional Weather Roundup
Issued by NWS

Home | Current Version | Previous Version | Text Only | Print | Product List | Glossary Off
Versions: 1 2 3 4 5 6 7 8 9 10 11 12 13 14 15 16 17 18 19 20 21 22 23 24 25 26 27 28 29 30 31 32 33 34 35 36 37 38 39 40 41 42 43 44 45 46 47 48 49 50

000
ASUS43 KDMX 140301
RWRIA

WEATHER ROUNDUP FOR IOWA
NATIONAL WEATHER SERVICE DES MOINES IA
900 PM CST WED DEC 13 2017

NOTE: "FAIR" INDICATES FEW OR NO CLOUDS BELOW 12,000 FEET WITH NO
SIGNIFICANT WEATHER AND/OR OBSTRUCTIONS TO VISIBILITY.

* - THESE STATIONS ARE NOT NWS STATIONS...THUS NOT UNDER NWS
QUALITY CONTROL.  THEY ALSO DO NOT REPORT WEATHER SUCH
AS PRECIPITATION OR FOG.

IAZ001>003-012>014-020>022-031>034-043>046-140400-
   NORTHWEST IOWA

CITY           SKY/WX    TMP DP  RH WIND       PRES   REMARKS
CARROLL *      CLOUDY    34  23  64 N18G26    29.89S WCI  23
CHEROKEE *     CLOUDY    33  27  79 NW8       29.92S WCI  26
DENISON *      CLOUDY    34  25  69 N15       29.93S WCI  24
LE MARS *      MIX PCPN  34  30  86 N8        29.94R WCI  27
ORANGE CITY *  CLOUDY    34  30  86 NW6       29.92R WCI  29
SHELDON *      CLOUDY    32  28  86 NW10      29.90R WCI  24
SIOUX CITY     CLOUDY    37  28  70 N16G25    29.94R WCI  28
SPENCER        CLOUDY    28  24  85 N17G31    29.92R WCI  16
STORM LAKE *   CLOUDY    32  23  69 N17G28    29.89R WCI  21
$$

IAZ055>058-069>071-079>083-090>094-140400-
   SOUTHWEST IOWA

CITY           SKY/WX    TMP DP  RH WIND       PRES   REMARKS
ATLANTIC *     CLOUDY    37  28  70 N14G23    29.92R WCI  29
AUDUBON *      CLOUDY    36  27  69 N13G18    29.91S WCI  27
CLARINDA *       N/A     41  27  56 N17G29      N/A
COUNCIL BLFS * CLOUDY    39  27  60 NW15G29   29.92R WCI  31
CRESTON *      CLOUDY    36  25  64 N17G33    29.91R WCI  25
HARLAN  *      CLOUDY    36  27  69 N12G18    29.96R WCI  27
LAMONI         CLOUDY    37  24  59 N17G30    29.89R WCI  27
RED OAK *      CLOUDY    39  27  60 N13       29.93R WCI  32
SHENANDOAH *   CLOUDY    41  27  56 N14G20    29.94R
$$

IAZ047>049-059>061-072>074-084-140400-
   CENTRAL IOWA

CITY           SKY/WX    TMP DP  RH WIND       PRES   REMARKS
AMES           CLOUDY    32  23  69 N20G30    29.89R WCI  20
ANKENY *       CLOUDY    34  21  60 N25G32    29.89R WCI  21
BOONE *        CLOUDY    32  21  64 N28G41    29.87R WCI  18
CHARITON *     DRIZZLE   34  19  55 NW26G36   29.86R WCI  21
DES MOINES     CLOUDY    35  21  56 NW18G25   29.88R WCI  24
GRINNELL*      CLOUDY    31  23  74 NW21G31   29.86R WCI  18
KNOXVILLE *    CLOUDY    34  19  55 NW20      29.84S WCI  22
MARSHALLTOWN   CLOUDY    29  22  75 N16       29.86R WCI  17
NEWTON *       CLOUDY    32  23  69 N24G31    29.86R WCI  19
PELLA *        CLOUDY    33  23  66 NW20G28   29.88R WCI  21
$$

IAZ004>006-015-016-023>025-035-036-140400-
   NORTH CENTRAL IOWA

CITY           SKY/WX    TMP DP  RH WIND       PRES   REMARKS
ALGONA *       CLOUDY    28  21  74 N14G25    29.89R WCI  17
CLARION *      CLOUDY    27  21  80 N18G32    29.88R WCI  13
ESTHERVILLE    CLOUDY    26  20  77 N23G31    29.90R WCI  11
FORT DODGE *   CLOUDY    30  23  75 N12G24    29.90R WCI  20
MASON CITY     CLOUDY    24  17  74 N18       29.88R WCI  10
FOREST CITY *    N/A     25  19  80 N12       29.88R WCI  14
WEBSTER CITY * CLOUDY    30  21  69 N18G28    29.87R WCI  18
IOWA FALLS *   CLOUDY    29  23  78 N16G25    29.87R WCI  17
$$

IAZ007>011-017>019-026>030-037>042-050>054-066-140400-
   NORTHEAST IOWA

CITY           SKY/WX    TMP DP  RH WIND       PRES   REMARKS
CEDAR RAPIDS   CLOUDY    27  18  69 N21       29.82R WCI  13
CHARLES CITY * CLOUDY    25  18  74 N17G26    29.85R WCI  11
CLINTON *      CLOUDY    27  18  69 N18       29.79R WCI  14
DECORAH *      PTCLDY    19  14  79 N9G16     29.82R WCI   9
DUBUQUE        CLOUDY    24  16  71 N18       29.78R WCI  10
MONTICELLO *   PTCLDY    25  14  63 N13G20    29.82R WCI  13
OELWEIN *      CLOUDY    25  18  74 N18G25    29.83R WCI  11
WATERLOO       CLOUDY    25  17  72 N20G30    29.86R WCI  11
$$

IAZ064-065-067-068-078-140400-
   EAST CENTRAL IOWA

CITY           SKY/WX    TMP DP  RH WIND       PRES   REMARKS
DAVENPORT      CLOUDY    27  16  63 NW20      29.82R WCI  13
IOWA CITY      CLOUDY    31  19  61 N17G23    29.84R WCI  19
MT. PLEASANT * CLOUDY    32  24  71 NW13G25   29.82R WCI  22
MUSCATINE *    CLOUDY    30  19  64 N15G26    29.83R WCI  19
QUAD CITIES    CLOUDY    29  18  63 NW15G29   29.79R WCI  18
$$

IAZ062-063-075>077-085>089-095>099-140400-
   SOUTHEAST IOWA

CITY           SKY/WX    TMP DP  RH WIND       PRES   REMARKS
BURLINGTON     CLOUDY    33  25  72 NW20G28   29.80R WCI  21
FAIRFIELD *    CLOUDY    32  23  69 NW25G31   29.82R WCI  19
FORT MADISON * CLOUDY    34  25  69 NW22G29   29.82R WCI  22
KEOKUK *       CLOUDY    36  25  64 NW21G29   29.82R WCI  24
OSKALOOSA *    CLOUDY    32  24  72 NW23G30   29.85R WCI  19
OTTUMWA        CLOUDY    34  24  67 NW24G31   29.84R WCI  21
WASHINGTON *   CLOUDY    32  25  74 N26G33    29.84R WCI  18
$$

ABBREVIATIONS USED IN REMARKS
   TC - TEMPERATURES IN CELSIUS
  WCI - WIND CHILL INDEX
   HX - HEAT INDEX
  VSB - VISIBILITY
$$





USA.gov is the U.S. government's official web portal to all federal, state and local government web resources and services.